SCP
0 0 0 0 0 0 0 0 0 0 0 0 0 0 0 0 0 0 0 0 0 0 0 0 0 0 0 0 0 0 0 0 0 0 0 0 0 0 0 0 0 0 0
0 0 0 0 0 0 0 0 0 0 0 0 0 0 0 0 0 0 0 0 0 0 0 0 0 0 0 0 0 0 0 0 0 0 0 0 0 0 0 0 0 0 0
0 0 0 0 1 1 0 0 0 0 0 0 0 0 0 0 0 0 0 0 0 0 0 0 0 0 0 0 0 0 0 0 0 0 0 0 0 0 0 0 0 0 0
0 0 0 0 1 1 1 0 0 0 0 0 0 0 0 0 0 0 0 0 0 0 0 0 0 0 0 0 0 0 0 0 0 0 0 0 0 0 0 0 0 0 0
0 0 0 0 1 1 1 1 0 0 0 0 0 0 0 0 0 0 0 0 0 0 0 0 0 0 0 0 0 0 0 0 0 0 0 0 0 0 0 0 0 0 0
0 0 0 0 1 1 1 1 0 0 0 0 0 0 0 0 0 0 0 0 0 0 0 0 0 0 0 0 0 0 0 0 0 0 0 0 0 0 0 0 0 0 0
0 0 0 0 0 0 1 1 0 0 0 0 0 0 0 0 0 0 0 0 0 0 0 0 0 0 0 0 0 0 0 0 0 0 0 0 0 0 0 0 0 0 0
0 0 0 0 0 0 0 0 0 0 0 0 0 0 0 0 0 0 0 0 0 0 0 0 0 0 0 0 0 0 0 0 0 0 0 0 0 0 0 0 0 0 0
0 0 0 0 0 0 0 0 0 0 0 0 0 0 0 0 0 0 0 0 0 0 0 0 0 0 0 0 0 0 0 0 0 0 0 0 0 0 0 0 0 0 0
0 0 0 0 0 0 0 0 0 0 0 0 0 0 0 0 0 0 0 0 0 0 0 0 0 0 0 0 0 0 0 0 0 0 0 0 0 0 0 0 0 0 0
0 0 0 0 0 0 0 0 0 0 0 0 0 0 0 0 0 0 0 0 0 0 0 0 0 0 0 0 0 0 0 0 0 0 0 0 0 0 0 0 0 0 0
0 0 0 0 0 0 0 0 0 0 0 0 0 0 0 0 0 0 0 0 0 0 0 0 0 0 0 0 0 0 0 0 0 0 0 0 0 0 0 0 0 0 0
0 0 0 0 0 0 0 0 0 0 0 0 0 0 0 0 0 0 0 0 0 0 0 0 0 0 0 0 0 0 0 0 0 0 0 0 0 0 0 0 0 0 0
0 0 0 0 0 0 0 0 0 0 0 0 0 0 0 0 0 0 0 0 0 0 0 0 0 0 0 0 0 0 0 0 0 0 0 0 0 0 0 0 0 0 0
0 0 0 0 0 0 0 0 0 0 0 0 0 0 0 0 0 0 0 0 0 0 0 0 0 0 0 0 0 0 0 0 0 0 0 0 0 0 0 0 0 0 0
0 0 0 0 0 0 0 0 0 0 0 0 0 0 0 0 0 0 0 0 0 0 0 0 0 0 0 0 0 0 0 0 0 0 0 0 0 0 0 0 0 0 0
0 0 0 0 0 0 0 0 0 0 0 0 0 0 0 0 0 0 0 0 0 0 0 0 0 0 0 0 0 0 0 0 0 0 0 0 0 0 0 0 0 0 0
0 0 0 0 0 0 0 0 0 0 0 0 0 0 0 0 0 0 0 0 0 0 0 0 0 0 0 0 0 0 0 0 0 0 0 0 0 0 0 0 0 0 0
0 0 0 0 0 0 0 0 0 0 0 0 0 0 0 0 0 0 0 0 0 0 0 0 0 0 0 0 0 0 0 0 0 0 0 0 0 0 0 0 0 0 0
0 0 0 0 0 0 0 0 0 0 0 0 0 0 0 0 0 0 0 0 0 0 0 0 0 0 0 0 0 0 0 0 0 0 0 0 0 0 0 0 0 0 0
0 0 0 0 0 0 0 0 0 0 0 0 0 0 0 0 0 0 0 0 0 0 0 0 0 0 0 0 0 0 0 0 0 0 0 0 0 0 0 0 0 0 0
0 0 0 0 0 0 0 0 0 0 0 0 0 0 0 0 0 0 0 0 0 0 0 0 0 0 0 0 0 0 0 0 0 0 0 0 0 0 0 0 0 0 0
0 0 0 0 0 0 0 0 0 0 0 0 0 0 0 0 0 0 0 0 0 0 0 0 0 0 0 0 0 0 0 0 0 0 0 0 0 0 0 0 0 0 0
0 0 0 0 0 0 0 0 0 0 0 0 0 0 0 0 0 0 0 0 0 0 0 0 0 0 0 0 0 0 0 0 0 0 0 0 0 0 0 0 0 0 0
0 0 0 0 0 0 0 0 0 0 0 0 0 0 0 0 0 0 0 0 0 0 0 0 0 0 0 0 0 0 0 0 0 0 0 0 0 0 0 0 0 0 0
0 0 0 0 0 0 0 0 0 0 0 0 0 0 0 0 0 0 0 0 0 0 0 0 0 0 0 0 0 0 0 0 0 0 0 0 0 0 0 0 0 0 0
Wind_Speed
2 4 8 8 7 7 7 8 8 9 9 9 9 9 8 8 8 8 8 8 9 9 9 9 9 9 9 10 10 11 11 12 13 13 12 12 12 12 11 9 11 9 13
2 5 8 7 7 7 7 7 7 7 8 8 9 9 8 8 8 7 7 8 8 8 9 9 9 9 9 10 10 10 11 11 11 11 11 10 10 11 12 14 12 8 12
3 5 7 6 6 6 6 6 7 7 7 8 8 9 8 8 7 7 7 7 8 8 9 9 9 9 9 9 9 9 9 8 8 7 7 6 7 11 11 12 11 11 12
4 4 6 6 5 5 5 6 6 7 7 7 8 8 8 8 7 7 7 7 8 8 8 9 9 9 10 9 9 9 7 5 3 2 2 5 6 9 10 10 10 11 11
4 4 6 6 4 4 5 5 6 6 7 7 7 8 8 8 8 7 7 7 7 7 8 9 9 10 9 9 8 8 5 3 2 3 1 7 6 8 9 9 9 10 10
5 4 5 5 4 3 3 4 5 6 7 7 7 8 8 8 8 8 7 7 7 7 8 10 10 10 9 9 8 7 5 3 4 2 3 7 5 8 8 8 8 8 8
5 4 3 4 3 2 3 4 5 5 6 7 8 8 9 9 9 8 7 7 8 8 9 10 11 10 10 9 8 7 5 4 4 1 4 6 6 8 8 7 7 7 7
5 4 1 2 2 3 3 4 5 6 6 7 7 8 8 9 9 9 9 9 10 10 10 11 11 10 10 9 9 7 5 5 4 1 4 6 8 8 7 6 6 6 6
5 4 3 1 1 3 4 5 5 6 7 7 7 8 8 8 9 9 10 10 11 11 11 11 11 11 10 10 9 7 5 5 4 2 5 5 8 8 7 6 5 5 4
4 4 4 3 2 1 2 5 6 7 7 8 8 8 8 8 9 10 10 10 11 11 11 11 11 12 11 10 9 7 6 4 4 3 3 6 9 8 7 6 5 4 4
5 4 4 4 3 3 3 3 5 6 7 7 7 8 8 5 6 7 10 11 12 12 12 12 12 11 10 9 9 8 5 3 4 2 3 9 10 9 8 7 6 5 4
5 5 4 5 4 4 4 2 2 3 4 5 5 6 5 5 5 6 9 12 13 13 12 12 12 11 8 5 6 7 3 6 5 3 5 12 11 9 8 7 6 6 5
4 5 4 4 4 4 3 3 2 2 2 4 5 5 5 4 3 3 3 5 7 9 7 8 8 6 6 5 5 5 6 6 4 3 6 13 11 10 10 9 8 7 6
5 5 4 4 4 4 3 3 3 2 2 2 3 4 3 3 3 3 3 4 4 4 5 5 5 7 7 7 8 8 8 5 3 3 6 13 12 11 11 10 10 9 8
5 5 5 4 4 4 4 3 4 3 3 3 3 3 4 3 3 4 4 4 5 5 6 6 6 8 8 8 8 9 8 7 6 4 5 12 12 11 11 11 11 11 10
6 6 5 5 4 4 4 3 3 3 3 3 3 3 4 3 4 4 4 5 5 5 6 6 7 7 7 6 7 7 7 7 6 5 6 8 12 12 11 12 12 12 12
7 6 6 6 5 5 5 5 4 4 4 3 3 4 4 4 4 4 4 4 5 5 6 5 7 5 5 6 6 7 5 6 5 5 6 6 7 11 12 13 13 13 12
7 7 7 7 6 5 5 4 4 4 4 3 3 3 4 4 4 3 3 4 5 4 4 5 5 4 5 5 4 5 5 5 5 5 5 6 6 7 10 13 13 13 13
7 7 7 7 7 6 5 4 4 4 3 3 3 2 3 3 3 3 3 3 4 3 4 5 4 4 4 5 5 5 4 5 5 5 5 6 7 7 7 11 14 12 12
6 6 7 7 7 7 5 4 3 3 3 3 3 3 3 2 3 2 2 3 3 3 3 4 5 4 4 4 5 5 4 5 5 5 6 6 6 7 8 8 8 10 13
7 7 7 7 7 6 4 4 3 2 2 2 2 3 3 2 3 2 2 2 2 3 4 5 4 5 4 3 2 3 3 5 5 5 5 5 6 7 7 8 7 6 7
8 8 8 8 8 7 5 4 3 3 2 2 2 3 2 2 2 2 2 2 3 3 4 4 4 3 3 4 3 2 2 3 5 6 5 6 7 6 7 8 8 8 7
7 8 8 8 8 7 7 5 4 3 2 2 3 3 3 3 2 2 2 1 2 2 3 4 5 6 5 5 4 4 4 5 3 4 7 6 6 5 6 6 8 8 8
7 6 7 8 8 7 7 5 5 3 3 3 2 3 3 3 3 3 2 2 2 2 3 4 4 4 5 5 4 5 4 2 3 2 3 5 6 6 6 6 7 7 7
7 6 6 7 8 8 7 7 5 4 3 3 3 3 3 3 3 3 3 2 2 2 3 3 3 4 4 5 4 4 5 4 3 3 3 3 4 6 6 7 6 7 8
6 6 6 7 8 8 8 7 6 5 5 4 4 4 3 2 3 3 3 2 2 2 3 3 3 3 4 4 4 4 3 4 4 4 4 4 5 5 6 6 6 7 6
Wind_Direction
42 109 140 147 152 151 152 152 151 153 154 154 153 151 150 145 139 134 134 133 132 130 126 123 119 115 110 103 98 96 94 90 90 87 83 79 79 76 69 73 85 75 78
33 104 134 145 156 157 157 155 154 157 159 162 162 162 162 158 154 151 151 149 146 143 139 134 129 123 117 110 105 102 101 100 102 102 95 79 75 74 69 68 81 84 80
40 99 124 136 151 157 159 156 156 162 167 169 171 171 171 169 167 164 164 164 161 153 147 141 135 128 123 118 113 109 111 116 124 132 125 107 88 81 78 78 83 84 82
34 90 116 127 145 158 164 164 166 173 176 177 179 179 178 179 178 178 178 176 167 158 152 142 137 130 126 123 120 118 123 136 159 190 165 119 100 92 89 87 86 84 82
34 69 107 125 137 158 170 174 179 184 188 189 187 188 188 188 187 187 188 182 172 162 156 148 141 137 134 132 131 132 142 183 249 258 110 99 95 102 96 92 89 88 85
27 57 106 121 133 153 171 184 192 197 201 201 200 199 198 199 198 196 188 182 172 167 162 155 149 147 144 144 145 150 170 232 289 263 121 109 108 113 106 99 95 94 91
16 34 98 116 134 157 178 193 202 209 213 211 211 210 208 208 207 202 192 183 174 172 168 162 159 157 155 157 159 166 195 251 273 295 96 103 118 122 118 113 107 102 95
10 14 42 132 161 184 195 201 210 216 219 219 219 218 217 216 213 207 198 188 180 179 176 170 168 167 165 166 168 175 204 257 265 196 108 111 130 131 129 125 118 111 103
2 1 359 324 218 214 213 208 212 218 222 223 222 220 218 217 216 211 202 194 187 186 183 177 176 174 173 173 174 177 206 250 292 273 133 125 140 143 143 139 133 126 117
356 356 353 342 334 296 237 222 220 223 225 224 224 223 220 220 218 214 205 197 193 190 187 183 181 181 178 178 179 181 206 251 263 250 134 141 151 156 158 157 155 149 140
354 354 348 342 335 318 294 241 220 223 225 224 224 223 220 219 216 211 208 200 194 192 190 189 186 184 179 180 182 185 198 239 242 217 141 150 159 167 171 173 175 172 167
343 345 350 347 342 330 311 299 241 228 213 216 219 209 209 216 216 213 203 197 196 193 191 193 190 183 176 179 186 187 210 234 237 193 150 157 167 176 181 183 187 190 188
331 335 340 337 329 324 316 301 281 266 234 217 223 215 206 210 210 209 183 186 193 192 192 192 188 188 192 191 182 193 218 226 221 186 160 165 174 186 190 193 196 198 199
330 327 330 328 322 314 307 299 287 272 257 239 230 230 213 205 199 194 186 185 186 188 188 186 190 197 203 204 190 194 212 220 213 176 165 171 179 192 198 201 204 205 206
324 325 322 315 312 306 302 294 290 282 270 252 232 230 223 209 204 203 194 191 193 191 191 192 197 203 206 209 203 202 204 209 210 184 163 178 181 192 202 208 210 210 211
330 325 319 314 310 304 297 290 285 279 273 269 253 240 233 213 205 203 203 199 199 198 195 197 200 206 207 206 208 208 203 202 207 186 165 182 188 192 201 210 213 214 214
329 324 322 315 309 301 296 293 290 282 275 265 255 251 247 233 218 208 205 204 204 202 200 202 207 210 210 207 209 210 205 205 203 192 174 174 188 199 202 210 215 216 217
334 331 329 326 321 309 298 293 290 292 293 282 269 258 256 250 239 219 212 209 205 201 201 204 209 206 210 209 208 212 208 202 207 202 191 179 180 190 204 210 214 217 218
339 333 330 329 324 314 301 287 282 288 292 293 291 275 263 252 246 226 214 220 209 201 204 208 210 204 210 214 214 214 209 199 205 210 207 197 189 185 188 204 209 213 217
342 337 332 330 328 321 312 301 288 284 284 284 288 295 286 275 263 238 216 225 218 211 207 204 210 209 213 211 217 222 219 209 204 208 211 207 200 194 190 191 198 213 217
353 348 342 340 335 333 326 315 303 295 287 288 287 296 298 303 292 266 249 233 218 218 219 211 207 210 216 202 198 225 240 225 217 213 210 205 206 202 197 193 190 194 208
357 352 349 346 342 340 330 317 295 288 294 298 311 307 313 320 315 295 266 249 236 223 227 224 214 210 213 191 181 183 226 239 236 223 213 211 211 204 204 202 194 195 194
357 352 348 344 343 341 336 330 326 316 316 323 326 323 326 326 318 312 295 273 258 233 226 224 219 214 216 208 191 180 194 213 218 224 219 216 211 208 209 208 205 202 198
354 352 349 349 349 346 344 345 343 333 318 316 323 326 328 332 337 348 341 328 304 269 247 243 234 230 216 213 212 211 211 182 194 228 228 219 215 217 216 213 211 208 201
358 358 352 352 357 354 353 352 345 337 325 323 331 329 322 329 338 348 343 341 333 309 290 265 249 242 232 224 214 210 223 226 211 217 231 221 226 225 221 215 213 213 208
1 0 357 359 360 356 355 355 353 347 337 337 338 327 323 330 332 340 339 336 329 316 308 296 265 251 249 243 231 217 206 206 210 214 228 223 228 231 223 217 215 214 209